Location: Fayetteville
(35.0530°N, 78.8790°W)
Time: 05:11:55
(UTC-05:00)

Envisat - Visible Passes

Search period start: 01 December 2021 00:00
Search period end: 11 December 2021 00:00
Orbit: 764 x 766 km, 98.2° (Epoch: 30 November)

Date Brightness Start Highest point End Pass type
(mag) Time Alt. Az. Time Alt. Az. Time Alt. Az.
01 Dec 5.5 04:10:52 10° NE 04:14:25 19° E 04:17:56 10° SE visible
01 Dec 3.3 05:48:47 10° N 05:53:33 42° WNW 05:58:16 10° SW visible
02 Dec 3.0 05:11:42 10° NNE 05:16:48 83° ESE 05:21:52 10° S visible
03 Dec 4.5 04:35:16 10° NNE 04:39:53 34° E 04:44:27 10° SSE visible
03 Dec 4.0 06:14:41 10° NNW 06:18:39 24° WNW 06:22:37 10° WSW visible
03 Dec 5.7 17:26:02 10° SSW 17:30:07 24° W 17:34:12 10° NW visible
04 Dec 5.8 04:00:04 10° ENE 04:02:46 14° E 04:05:27 10° SE visible
04 Dec 3.0 05:37:06 10° N 05:42:03 54° WNW 05:46:58 10° SSW visible
05 Dec 3.4 05:00:12 10° NNE 05:05:15 63° E 05:10:16 10° S visible
05 Dec 4.6 06:41:18 10° NW 06:43:40 13° WNW 06:46:02 10° W visible
05 Dec 6.2 17:53:21 10° WSW 17:55:38 13° W 17:57:54 10° WNW visible
06 Dec 5.0 04:24:01 10° NE 04:28:16 26° E 04:32:29 10° SSE visible
06 Dec 3.7 06:02:48 10° N 06:07:12 30° WNW 06:11:34 10° SW visible
07 Dec 6.1 03:50:05 10° E 03:51:05 11° E 03:52:05 10° ESE visible
07 Dec 2.8 05:25:28 10° N 05:30:32 71° WNW 05:35:34 10° SSW visible
08 Dec 3.9 04:48:45 10° NNE 04:53:41 48° E 04:58:33 10° S visible
08 Dec 4.3 06:29:01 10° NNW 06:32:15 17° WNW 06:35:29 10° WSW visible
08 Dec 5.9 17:40:42 10° SW 17:43:58 17° W 17:47:15 10° NW visible
09 Dec 5.4 04:12:54 10° NE 04:16:38 20° E 04:20:20 10° SE visible
09 Dec 3.4 05:51:02 10° N 05:55:43 38° WNW 06:00:23 10° SW visible
10 Dec 2.9 05:13:53 10° NNE 05:18:59 89° E 05:24:04 10° SSW visible
